Starlink 4795

operational
NORAD ID: 53856 Int'l Des: 2022-114 Owner: SPXS Country: US Constellation: starlink
LEOCIRCULAR

Starlink 4795について

説明を読み込み中...

リアルタイム位置

3D地球を読み込み中...

次回通過

高度履歴

Altitude vs Time

uPlot chart will show altitude changes over time

軌道要素

1 53856U 22114AQ 26062.08469535 .00007573 00000-0 49305-3 0 9999
2 53856 53.2173 313.8581 0001651 82.0224 278.0956 15.08866928192114
Epoch: Mar 3, 2026 • Age: 24 hours

現在のステータス

高度 554.5 km
速度 7.58 km/s
衛星直下点 -41.92°S, 105.49°E
打ち上げ日 Sep 19, 2022
運用期間 3.4 years
タイプ internet

技術仕様

分類 Payload
質量 305.00 kg
乾燥質量 290.00 kg
総質量 305.00 kg
長さ 0.20 m
直径 2.80 m
スパン 9.00 m
形状 Box + pan
製造者 SPXS
バスタイプ Starlink
フェーズステータス In Orbit
所有者/国 SPXS/US

大規模コンステレーション

Loading constellations...